C/2008 R3 ( LINEAR )

Japanese version
Home page
Total 6,336 html files since Dec. 4, 1995
Updated on October 22, 2008

---------------------------------------------------------------------

* Profile

Discovery Date September 7, 2008
Magnitude 18.5 mag
Discoverer Lincoln Laboratory Near-Earth Asteroid Research project

* Pictures

* Orbital Elements

Epoch 2008 Nov. 30.0 TT = JDT 2454800.5
T 2008 Nov. 22.48273 TT                                 MPC
q   1.9088599            (2000.0)            P               Q
n   0.01259485     Peri.   84.15100     +0.72569046     +0.06448373
a  18.2953514      Node   270.56180     -0.35804292     +0.88556112
e   0.8956642      Incl.   43.23763     +0.58751904     +0.46002537
P  78.25

* Finding Charts

* Magnitudes Graph

        m1 = 12.7 + 5 log d + 10.0 log r

---------------------------------------------------------------------

The orbital elements are published on M.P.E.C. 2008-U21.
The charts are made with StellaNavigator Ver.8 (AstroArts).
The magnitudes graphs are made with Comet for Windows.

---------------------------------------------------------------------

Copyright(C) 1995-2008 Seiichi Yoshida (comet@aerith.net). All rights reserved.